KE8HFO Weather Reports


time (UTC)temp
F
wind
direction
speed
knots
gust
knots
rain 1hr
in
rain 24hr
in
rain mn
in
humidity
%
barometer
mb
20260507044550 42 0 0.0 0.0 0.00 0.43 0.00 88 1015.7
20260507044040 42 0 0.0 0.0 0.00 0.43 0.00 88 1015.7
20260507043537 42 0 0.0 0.0 0.00 0.43 0.00 87 1015.6
20260507043047 42 0 0.0 0.0 0.00 0.43 0.00 87 1015.6
20260507042538 42 0 0.0 0.0 0.00 0.43 0.00 88 1015.6
20260507042037 42 0 0.0 0.0 0.00 0.43 0.00 87 1015.6
20260507041547 42 0 0.0 0.0 0.00 0.43 0.00 87 1015.5
20260507041038 42 0 0.0 0.0 0.00 0.43 0.00 87 1015.7
20260507040538 42 0 0.0 0.0 0.00 0.43 0.00 88 1015.6
20260507040049 42 0 0.0 0.0 0.00 0.43 0.00 87 1015.6
20260507035537 42 0 0.0 0.0 0.00 0.44 0.43 87 1015.5
20260507035036 42 0 0.0 0.0 0.00 0.44 0.43 87 1015.6
20260507034548 42 0 0.0 0.0 0.00 0.44 0.43 87 1015.5
20260507034036 42 0 0.0 0.0 0.00 0.44 0.43 87 1015.5
20260507033537 42 0 0.0 0.0 0.00 0.44 0.43 87 1015.5
20260507033050 42 0 0.0 0.0 0.00 0.44 0.43 87 1015.6
20260507032537 43 0 0.0 0.0 0.00 0.44 0.43 87 1015.7
20260507032037 43 0 0.0 0.0 0.00 0.44 0.43 86 1015.7
20260507031548 43 0 0.0 0.0 0.00 0.44 0.43 86 1015.7
20260507031036 43 0 0.0 0.0 0.00 0.44 0.43 86 1015.7
20260507030535 43 0 0.0 0.0 0.00 0.44 0.43 86 1015.7
20260507030049 44 0 0.0 0.0 0.00 0.44 0.43 86 1015.8
20260507025537 44 0 0.0 0.0 0.00 0.52 0.43 86 1015.8
20260507025039 44 0 0.0 0.0 0.00 0.52 0.43 84 1015.9
20260507024548 44 0 0.0 0.0 0.00 0.52 0.43 83 1016.0
20260507024037 44 0 0.0 0.0 0.00 0.52 0.43 82 1016.0
20260507023533 45 0 0.0 0.0 0.00 0.52 0.43 82 1016.0
20260507023045 45 0 0.0 0.0 0.00 0.52 0.43 81 1015.9
20260507022536 45 0 0.0 0.0 0.00 0.52 0.43 81 1016.0
20260507022037 45 0 0.0 0.0 0.00 0.52 0.43 80 1015.8
20260507021546 45 0 0.0 0.0 0.00 0.52 0.43 80 1015.8
20260507021036 46 0 0.0 0.0 0.00 0.52 0.43 80 1015.8
20260507020549 46 0 0.0 0.0 0.00 0.52 0.43 79 1015.6
20260507015540 47 0 0.0 0.0 0.00 0.70 0.43 78 1015.5
20260507015037 47 0 0.0 0.0 0.00 0.70 0.43 77 1015.4
20260507014556 48 0 0.0 0.0 0.00 0.70 0.43 77 1015.4
20260507014037 48 0 0.0 0.0 0.00 0.70 0.43 76 1015.5
20260507013536 48 0 0.0 0.0 0.00 0.70 0.43 75 1015.5
20260507013047 49 0 0.0 0.0 0.00 0.70 0.43 74 1015.4
20260507012537 49 0 0.0 0.0 0.00 0.70 0.43 74 1015.3
20260507012034 49 0 0.0 0.0 0.00 0.70 0.43 74 1015.3
20260507011547 50 0 0.0 0.0 0.00 0.70 0.43 75 1015.3
20260507011034 50 0 0.0 0.0 0.00 0.70 0.43 75 1015.4
20260507010536 50 0 0.0 0.0 0.00 0.70 0.43 74 1015.4
20260507010059 50 0 0.0 0.0 0.00 0.70 0.43 72 1015.3
20260507005536 50 0 0.0 0.0 0.00 0.80 0.43 72 1015.3
20260507005037 51 0 0.0 0.0 0.00 0.80 0.43 71 1015.2
20260507004551 51 0 0.0 0.0 0.00 0.80 0.43 71 1015.2
20260507004035 51 0 0.0 0.0 0.00 0.80 0.43 70 1014.9
20260507003535 51 0 0.0 0.0 0.00 0.80 0.43 67 1014.9
20260507003048 52 0 0.0 0.0 0.00 0.80 0.43 66 1014.8
20260507002537 52 0 0.0 0.0 0.00 0.80 0.43 67 1014.9
20260507002035 52 0 0.0 0.0 0.00 0.80 0.43 66 1014.6
20260507001555 52 0 0.0 0.9 0.00 0.80 0.43 65 1014.7
20260507001034 53 0 0.0 0.9 0.00 0.80 0.43 64 1014.6
20260507000535 53 0 0.0 0.9 0.00 0.80 0.43 64 1014.5
20260507000048 53 0 0.0 0.9 0.00 0.80 0.43 64 1014.5
20260506235534 53 0 0.0 0.9 0.00 0.86 0.43 65 1014.7
20260506235034 53 238 0.0 0.9 0.00 0.86 0.43 63 1014.5
20260506234547 54 0 0.0 0.9 0.00 0.86 0.43 64 1014.5
20260506234036 54 211 0.0 1.7 0.00 0.86 0.43 62 1014.4
20260506233537 54 0 0.0 1.7 0.00 0.86 0.43 61 1014.3
20260506233046 54 266 0.0 1.7 0.00 0.86 0.43 61 1014.5
20260506232533 54 0 0.0 2.6 0.00 0.86 0.43 60 1014.5
20260506232036 54 32 0.0 2.6 0.00 0.86 0.43 59 1014.5
20260506231603 54 256 0.0 2.6 0.00 0.86 0.43 59 1014.5
20260506231036 55 265 0.9 2.6 0.00 0.86 0.43 59 1014.5
20260506230536 55 0 0.0 3.5 0.00 0.86 0.43 60 1014.5
20260506230109 55 262 0.0 3.5 0.00 0.86 0.43 61 1014.5
20260506225535 55 242 0.0 3.5 0.00 0.97 0.43 60 1014.7
20260506225035 55 252 0.9 2.6 0.00 0.97 0.43 59 1014.7
20260506224546 55 339 0.0 2.6 0.00 0.97 0.43 59 1015.0
20260506224034 54 271 0.0 2.6 0.00 0.97 0.43 60 1014.9
20260506223536 55 273 0.0 1.7 0.00 0.97 0.43 61 1014.8
20260506223051 55 0 0.0 1.7 0.00 0.97 0.43 60 1014.8
20260506222534 55 0 0.0 0.9 0.00 0.97 0.43 58 1014.8
20260506222038 55 0 0.0 3.5 0.00 0.97 0.43 59 1015.0
20260506221607 55 284 0.0 3.5 0.00 0.97 0.43 58 1015.1
20260506221038 55 268 0.0 2.6 0.00 0.97 0.43 59 1014.9
20260506220536 55 264 0.0 2.6 0.00 0.97 0.43 58 1014.9
20260506215533 55 0 0.0 3.5 0.00 0.98 0.43 59 1015.1
20260506215033 55 0 0.0 3.5 0.00 0.98 0.43 58 1015.0
20260506214548 55 265 0.9 3.5 0.00 0.98 0.43 57 1014.7
20260506214032 55 260 0.9 2.6 0.00 0.98 0.43 56 1014.6
20260506213540 55 275 0.9 4.3 0.00 0.98 0.43 58 1014.5
20260506213103 55 269 0.9 4.3 0.00 0.98 0.43 57 1014.6
20260506212537 55 255 0.0 3.5 0.00 0.98 0.43 56 1014.4
20260506212037 55 250 1.7 3.5 0.00 0.98 0.43 57 1014.3
20260506211547 55 269 0.0 3.5 0.00 0.98 0.43 60 1014.5
20260506211037 55 263 0.9 3.5 0.00 0.98 0.43 58 1014.3
20260506210537 55 234 0.0 2.6 0.00 0.98 0.43 60 1014.3
20260506210055 55 263 0.0 3.5 0.00 0.98 0.43 59 1014.2
20260506205533 55 267 0.0 3.5 0.00 1.22 0.43 60 1014.2
20260506205036 55 260 0.9 3.5 0.00 1.22 0.43 59 1014.2
20260506204548 55 279 0.9 3.5 0.00 1.22 0.43 60 1014.3
20260506204037 55 271 0.9 6.1 0.00 1.22 0.43 59 1014.4
20260506203540 55 271 0.9 6.1 0.00 1.22 0.43 59 1014.4
20260506203044 56 264 0.9 4.3 0.00 1.22 0.43 58 1014.3
20260506202536 56 258 0.9 4.3 0.00 1.22 0.43 58 1014.3
20260506202037 56 271 0.0 3.5 0.00 1.22 0.43 61 1014.3
20260506201552 56 280 0.0 2.6 0.00 1.22 0.43 60 1014.2
20260506201035 57 261 0.9 2.6 0.00 1.22 0.43 59 1014.3
20260506200537 57 269 0.9 3.5 0.00 1.22 0.43 57 1014.3
20260506200054 57 0 0.0 3.5 0.00 1.22 0.43 60 1014.2
20260506195537 57 263 0.9 3.5 0.00 1.27 0.43 59 1014.2
20260506195037 57 251 0.0 3.5 0.00 1.27 0.43 60 1013.9
20260506194552 57 0 0.0 2.6 0.00 1.27 0.43 58 1014.1
20260506194036 56 263 0.9 4.3 0.00 1.27 0.43 58 1014.1
20260506193537 57 276 0.9 4.3 0.00 1.27 0.43 58 1014.0
20260506193050 57 278 0.9 6.1 0.00 1.27 0.43 60 1014.1
20260506192536 56 257 1.7 6.1 0.00 1.27 0.43 59 1014.0
20260506192036 56 242 0.9 2.6 0.00 1.27 0.43 58 1014.1
20260506191553 57 253 1.7 2.6 0.00 1.27 0.43 57 1014.1
20260506191037 57 0 0.9 5.2 0.00 1.27 0.43 58 1014.1
20260506190540 57 274 0.9 5.2 0.00 1.27 0.43 59 1014.0
20260506190057 58 165 0.9 5.2 0.00 1.27 0.43 61 1014.0
20260506185536 58 275 1.7 6.1 0.00 1.27 0.43 59 1013.9
20260506185037 58 267 1.7 7.8 0.00 1.27 0.43 56 1013.9
20260506184557 59 263 1.7 7.8 0.00 1.27 0.43 56 1014.0
20260506184033 59 58 1.7 7.8 0.00 1.27 0.43 60 1013.9
20260506183536 59 272 1.7 5.2 0.00 1.27 0.43 56 1013.7
20260506183048 59 266 0.0 7.0 0.00 1.27 0.43 57 1013.8
20260506182534 58 265 1.7 7.0 0.00 1.27 0.43 58 1013.8
20260506182037 59 265 1.7 7.0 0.00 1.27 0.43 55 1013.9
20260506181552 59 78 0.9 4.3 0.00 1.27 0.43 59 1013.9
20260506181037 58 263 0.9 7.8 0.00 1.27 0.43 60 1014.1
20260506180534 58 232 0.9 7.8 0.00 1.27 0.43 58 1014.0
20260506180057 58 118 1.7 7.0 0.00 1.27 0.43 60 1014.0
20260506175534 57 274 0.9 5.2 0.00 1.27 0.43 61 1014.3
20260506175040 57 241 0.9 5.2 0.00 1.27 0.43 63 1014.1
20260506174551 57 278 0.9 6.1 0.00 1.27 0.43 62 1014.2
20260506174037 57 225 0.9 6.1 0.00 1.27 0.43 60 1014.1
20260506173537 57 265 1.7 6.1 0.00 1.27 0.43 61 1014.2
20260506173049 57 263 1.7 7.8 0.00 1.27 0.43 62 1014.2
20260506172537 57 267 1.7 7.8 0.00 1.27 0.43 62 1014.3
20260506172040 58 40 1.7 7.0 0.00 1.27 0.43 63 1014.1
20260506171558 58 267 0.9 3.5 0.00 1.27 0.43 62 1014.3
20260506171036 58 10 0.0 3.5 0.00 1.27 0.43 64 1014.4
20260506170536 58 143 0.9 3.5 0.00 1.27 0.43 62 1014.4
20260506170057 58 165 0.0 2.6 0.00 1.27 0.43 63 1014.3
20260506165535 57 29 0.9 4.3 0.00 1.27 0.43 61 1014.2
20260506165037 57 279 0.9 5.2 0.00 1.27 0.43 66 1014.2
20260506164559 56 229 0.9 5.2 0.00 1.27 0.43 66 1014.0
20260506164036 56 77 0.9 6.1 0.00 1.27 0.43 66 1014.0
20260506163533 56 188 2.6 6.1 0.00 1.27 0.43 65 1014.0
20260506163051 57 288 0.9 4.3 0.00 1.27 0.43 69 1014.2
20260506162536 56 100 0.9 3.5 0.00 1.27 0.43 72 1014.3
20260506162036 56 253 0.9 3.5 0.00 1.27 0.43 73 1014.1
20260506161547 54 87 0.9 3.5 0.00 1.27 0.43 73 1014.2
20260506161036 53 125 0.9 5.2 0.00 1.27 0.43 77 1014.1
20260506160536 53 289 0.9 5.2 0.00 1.27 0.43 75 1014.0
20260506160059 53 178 0.9 4.3 0.00 1.27 0.43 76 1014.3
20260506155534 53 257 0.9 7.0 0.00 1.27 0.43 77 1014.3
20260506155037 52 51 0.9 7.8 0.00 1.27 0.43 80 1014.4
20260506154550 52 52 2.6 7.8 0.00 1.27 0.43 83 1014.3
20260506154036 52 271 0.9 5.2 0.00 1.27 0.43 81 1014.2
20260506153537 51 0 0.9 6.1 0.00 1.27 0.43 84 1014.2
20260506153046 50 0 0.9 6.1 0.00 1.27 0.43 82 1014.0
20260506152536 50 261 0.0 3.5 0.00 1.27 0.43 83 1013.8
20260506152033 49 269 1.7 3.5 0.00 1.27 0.43 80 1013.5
20260506151545 49 250 0.0 6.1 0.00 1.27 0.43 84 1013.5
20260506151034 49 273 1.7 6.1 0.00 1.27 0.43 83 1013.4
20260506150537 49 254 0.9 5.2 0.00 1.27 0.43 85 1013.5
20260506150053 49 272 0.9 5.2 0.00 1.27 0.43 85 1013.3
20260506145537 48 266 0.9 5.2 0.00 1.27 0.43 85 1013.4
20260506145036 48 142 0.9 5.2 0.00 1.27 0.43 86 1013.4
20260506144559 48 88 0.9 6.1 0.00 1.27 0.43 87 1013.6
20260506144036 48 270 0.9 6.1 0.00 1.27 0.43 87 1013.3
20260506143537 48 233 0.0 6.1 0.00 1.27 0.43 90 1013.2
20260506143043 47 248 1.7 6.1 0.00 1.27 0.43 89 1013.0
20260506142536 48 260 0.0 3.5 0.00 1.27 0.43 93 1013.0
20260506142036 47 273 0.9 3.5 0.00 1.27 0.43 93 1013.2
20260506141543 47 157 0.0 2.6 0.00 1.27 0.43 94 1013.2
20260506141034 47 254 0.0 3.5 0.00 1.27 0.43 95 1013.4
20260506140534 46 155 0.0 3.5 0.00 1.27 0.43 95 1013.4
20260506140048 46 285 0.0 2.6 0.00 1.27 0.43 96 1013.2
20260506135535 46 261 0.9 2.6 0.00 1.27 0.43 96 1013.2
20260506135043 45 281 0.9 2.6 0.00 1.27 0.43 96 1013.0
20260506134547 45 262 0.9 2.6 0.00 1.27 0.43 96 1012.9
20260506134033 45 0 0.9 2.6 0.00 1.27 0.43 96 1013.0
20260506133537 45 234 0.0 2.6 0.00 1.27 0.43 97 1012.6
20260506133044 45 264 0.0 2.6 0.00 1.27 0.43 97 1012.6
20260506132539 45 262 0.0 2.6 0.00 1.27 0.43 97 1012.5
20260506132032 44 0 0.0 2.6 0.00 1.27 0.43 97 1012.8
20260506131557 44 0 0.0 1.7 0.00 1.27 0.43 97 1012.5
20260506131036 44 0 0.0 1.7 0.00 1.27 0.43 97 1012.5
20260506130537 44 275 0.0 1.7 0.00 1.27 0.43 97 1012.5
20260506130049 44 0 0.0 1.7 0.00 1.27 0.43 97 1012.5
20260506125533 44 268 0.0 1.7 0.00 1.27 0.43 97 1012.4
20260506125036 44 268 0.0 1.7 0.00 1.27 0.43 97 1012.2
20260506124545 44 269 0.0 0.9 0.00 1.27 0.43 97 1012.2
20260506124036 44 173 0.0 1.7 0.00 1.27 0.43 97 1012.1
20260506123536 43 0 0.0 3.5 0.00 1.27 0.43 97 1012.3
20260506123051 43 264 0.9 3.5 0.00 1.27 0.43 97 1012.3
20260506122533 43 248 0.0 1.7 0.00 1.27 0.43 97 1012.2
20260506122033 43 274 0.0 1.7 0.00 1.27 0.43 97 1012.2
20260506121553 43 0 0.0 1.7 0.00 1.27 0.43 97 1012.1
20260506121033 43 188 0.0 2.6 0.00 1.27 0.43 97 1011.9
20260506120535 43 0 0.0 2.6 0.00 1.27 0.43 97 1011.9
20260506120052 43 271 0.0 1.7 0.00 1.27 0.43 97 1011.4
20260506115535 43 0 0.0 2.6 0.00 1.27 0.43 97 1011.4
20260506115036 43 265 0.0 2.6 0.00 1.27 0.43 98 1011.1
20260506114553 43 0 0.0 1.7 0.00 1.27 0.43 98 1010.9
20260506114036 43 265 0.0 1.7 0.00 1.27 0.43 97 1010.9
20260506113536 43 248 0.0 0.9 0.00 1.27 0.43 97 1010.7
20260506113043 43 0 0.0 1.7 0.00 1.27 0.43 97 1011.0
20260506112537 42 0 0.0 1.7 0.00 1.27 0.43 97 1011.1
20260506112036 42 250 0.0 1.7 0.00 1.27 0.43 97 1011.1
20260506111550 43 0 0.0 0.9 0.00 1.27 0.43 97 1011.2
20260506111036 43 0 0.0 2.6 0.00 1.27 0.43 97 1010.9
20260506110536 43 0 0.0 5.2 0.00 1.27 0.43 97 1011.0
20260506110047 42 257 0.9 5.2 0.00 1.27 0.43 97 1010.8
20260506105534 43 266 0.9 2.6 0.00 1.30 0.43 97 1010.8
20260506105037 43 270 0.9 2.6 0.00 1.30 0.43 97 1010.6
20260506104553 43 249 0.0 5.2 0.00 1.30 0.43 97 1010.2
20260506104033 43 258 0.9 5.2 0.00 1.30 0.43 97 1009.7
20260506103537 43 242 0.0 5.2 0.00 1.30 0.43 97 1009.9
20260506103054 43 244 0.0 3.5 0.00 1.30 0.43 98 1009.9
20260506102536 43 275 0.0 1.7 0.00 1.30 0.43 98 1010.0
20260506102034 43 248 0.0 0.9 0.00 1.30 0.43 98 1010.2
20260506101547 43 0 0.0 1.7 0.00 1.30 0.43 97 1010.1
20260506101037 43 0 0.0 1.7 0.00 1.30 0.43 97 1010.4
20260506100532 43 117 0.0 0.9 0.01 1.30 0.43 97 1010.2
20260506100055 43 0 0.0 0.9 0.01 1.30 0.43 97 1009.9
20260506095536 43 230 0.0 1.7 0.01 1.37 0.43 97 1009.8
20260506095036 43 0 0.0 1.7 0.01 1.37 0.43 97 1009.6
20260506094546 43 0 0.0 0.9 0.01 1.37 0.43 97 1009.5
20260506094035 43 0 0.0 0.9 0.01 1.37 0.43 97 1009.4
20260506093536 43 0 0.0 1.7 0.01 1.37 0.43 97 1008.9
20260506093045 43 0 0.0 1.7 0.01 1.37 0.43 97 1008.9
20260506092533 43 251 0.9 1.7 0.01 1.37 0.43 97 1008.8
20260506092035 43 0 0.0 0.9 0.01 1.37 0.43 97 1009.2
20260506091547 43 259 0.0 2.6 0.01 1.37 0.43 97 1009.5
20260506091033 43 0 0.0 2.6 0.02 1.37 0.43 97 1009.6
20260506090536 43 190 0.0 2.6 0.02 1.36 0.42 97 1009.2
20260506090046 43 262 0.0 4.3 0.02 1.36 0.42 97 1009.1
20260506085532 43 256 0.0 4.3 0.03 1.36 0.42 97 1009.2
20260506085033 44 258 0.0 2.6 0.04 1.36 0.42 97 1009.2
20260506084547 43 244 0.9 2.6 0.05 1.36 0.42 97 1009.4
20260506084033 43 257 0.0 2.6 0.06 1.36 0.42 97 1009.3
20260506083533 43 192 0.9 2.6 0.07 1.36 0.42 97 1009.2
20260506083044 44 260 0.9 3.5 0.07 1.36 0.42 97 1009.2
20260506082537 44 256 0.9 3.5 0.08 1.36 0.42 97 1009.1
20260506082036 44 267 0.9 7.8 0.08 1.36 0.42 97 1009.1
20260506081544 44 256 0.9 7.8 0.08 1.36 0.42 97 1009.1
20260506081036 44 255 0.9 3.5 0.08 1.35 0.41 97 1009.0
20260506080536 44 257 0.0 3.5 0.07 1.34 0.40 97 1009.3
20260506073048 44 245 1.7 3.5 0.03 1.30 0.35 97 1009.1
20260506072533 44 269 1.7 3.5 0.03 1.29 0.34 97 1009.0
20260506072033 44 258 0.0 3.5 0.04 1.29 0.34 97 1008.9
20260506071555 44 259 0.9 4.3 0.05 1.29 0.34 97 1008.8
20260506071032 44 270 0.0 4.3 0.05 1.28 0.33 97 1008.7
20260506070534 44 209 0.9 3.5 0.06 1.28 0.33 97 1008.6
20260506062035 45 248 0.9 10.4 0.11 1.25 0.30 97 1008.3
20260506061548 45 264 1.7 10.4 0.11 1.24 0.29 97 1008.8
20260506061034 45 276 1.7 3.5 0.11 1.23 0.28 97 1008.9
20260506060539 45 260 0.9 2.6 0.11 1.22 0.27 97 1009.0
20260506051036 48 261 0.9 3.5 0.16 1.12 0.17 97 1009.0
20260506050538 48 256 2.6 3.5 0.16 1.11 0.16 97 1008.5
20260506045036 48 264 1.7 4.3 0.14 1.09 0.14 97 1008.7